sat.trackr.live / text

‹ back to catalog

STEP CUBE LAB-II

NORAD 52897 · 2022-065D

PAYLOAD ACTIVE UNKNOWN

§ Identity

Operator
Country
SKOR
Launch date
2022-06-21
Launch site
NSC
Launch vehicle
Mass (kg)
RCS (m²)

External: N2YO · Heavens-Above · Gunter

§ Orbital elements

Epoch: 2026-05-25T03:50:42.683136Z

Period
98.41 min
Inclination
98.2200°
Eccentricity
0.0009932
Mean motion
14.63258771 rev/d
Perigee alt
675.7 km
Apogee alt
689.7 km
Semi-major
7,060.8 km
B*
1.0342e-4
RAAN
289.1372°
Arg perigee
96.6283°
Mean anomaly
263.6049°
Rev number
20,813

§ Raw data

STEP CUBE LAB-II1 52897U 22065D   26145.16021624  .00000485  00000+0  10342-3 0  99952 52897  98.2200 289.1372 0009932  96.6283 263.6049 14.63258771208131

JSON: /api/v1/satellites/52897 · /tle

For live sub-satellite position, see the globe view (requires WebGL).

§ Visibility from observer

Set your observer location to see the next 7 days of passes ≥ 10°. The values pass through the URL so the page stays shareable.

No JS? Fill the form by hand. The geolocation button needs JavaScript.

§ Radio — SatNOGS DB

ModeDescriptionDownlinkUplink
GMSK Mode U - GMSK 9600 AX.25 437.485 MHz

1 transmitter · refreshed weekly from db.satnogs.org